COSMOS 2569 (703K)

Last updated on Sun Dec 21 2025 00:02:41 GMT+0000 (Coordinated Universal Time)

1 57517U 23114A 25354.46653462 -.00000018 00000+0 00000+0 0 9999 2 57517 65.1981 78.6524 0010798 287.0398 72.8764 2.13103983 18453
UTC large
Height (km)
Speed (km/s)
/
Latitude / Longitude
Inclination (degrees)
Orbital Period (minutes)
Azimuth
Elevation
Range (km)
Doppler Factor

Next 0 passes for location: London (51.5072 / 0.1276)

Sorry there are no passes over London.